Location: Ab? ar R?sh Ba?r?
(24.1861°N, 32.8847°E)
Time: 00:10:46
(UTC+00:00)

NATO 3D Rocket - Pass Details

Date: 24 October 2021
Orbit: 670 x 2296 km, 21.5° (Epoch: 05 December)

Event Time Altitude Azimuth Distance (km) Brightness Sun altitude
Rises 17:07:51 0° 261° (W) 3,014 7.9 -26.4°
Reaches altitude 10° 17:10:12 10° 257° (WSW) 2,079 6.7 -27.0°
Enters shadow 17:14:07 56° 219° (SW) 814 3.7 -27.9°
